www.pogodaiklimat.ru

Погода и климат >> Архив погоды >> Россия >> Краснодарский край >> Магри


ПОГОДА в Магри

  • Прогноз погоды в Магри
  • Монитор погоды в Магри
  • Климат города

АРХИВ ПОГОДЫ в Магри

Время (UTC), дата Ветер
(напр.,м/с)
 
Видим.   Явления Облачность Т
(С)
Тd
(С)
f
(%)
Тe
(С)
Тes
(С)
Комфортность P
(гПа)
Po
(гПа)
Тmin
(С)
Tmax
(С)
R
(мм)
R24
(мм)
S
(см)
00 11.11 С 1 н/о н/о +5.8 +5.8 100 +4 +4 1023.5 1017.1
03 11.11 С 1 н/о н/о +5.5 +5.5 100 +4 +4 1023.5 1017.1 +5.6 0.3
06 11.11 штиль 0 н/о н/о +8.2 +8.2 100 +7 +7 1024.4 1018.0 +5.4
09 11.11 СЗ 2 н/о н/о +17.3 +4.9 44 +18 +18 1024.0 1017.8
12 11.11 СЗ 2 н/о н/о +16.1 +7.6 57 +16 +16 1024.2 1018.0
15 11.11 С 1 н/о н/о +10.2 +9.7 97 +10 +10 1024.8 1018.5 +17.7 0.3
18 11.11 СЗ 1 н/о н/о +6.3 +6.3 100 +5 +5 1024.8 1018.4
21 11.11 штиль 0 н/о н/о +5.2 +5.2 100 +4 +4 1025.8 1019.4
00 12.11 С 1 н/о н/о +5.2 +5.2 100 +4 +4 1026.1 1019.7
03 12.11 С 1 н/о н/о +7.9 +7.9 100 +7 +7 1026.5 1020.2 +4.9
06 12.11 штиль 0 н/о н/о +9.4 +8.8 96 +8 +8 1026.9 1020.6
09 12.11 Ю 1 н/о н/о +12.3 +6.4 67 +12 +12 1026.5 1020.2
12 12.11 СЗ 2 н/о н/о +8.9 +4.3 73 +7 +7 1026.6 1020.2
15 12.11 СЗ 1 н/о н/о +7.9 +3.6 74 +7 +7 1026.5 1020.1 +12.8
18 12.11 С 1 н/о н/о +7.4 +3.3 75 +7 +7 1027.3 1020.9
21 12.11 штиль 0 н/о н/о +4.2 +4.2 100 +3 +3 1027.9 1021.5
00 13.11 СЗ 1 н/о н/о +5.6 +2.0 78 +5 +5 1028.5 1022.1
03 13.11 С 2 н/о н/о +4.3 +0.7 77 +2 +2 1029.0 1022.5 +4.1
06 13.11 штиль 0 н/о н/о +4.0 +1.5 84 +3 +3 1028.7 1022.2 +3.8
09 13.11 С 1 н/о н/о +5.4 +0.4 70 +4 +4 1028.1 1021.6
12 13.11 СЗ 1 н/о н/о +5.2 -0.3 68 +4 +4 1027.6 1021.1
15 13.11 штиль 0 н/о н/о +4.9 +0.8 75 +4 +4 1027.5 1021.0 +7.4
18 13.11 СЗ 1 н/о н/о +5.5 +1.3 74 +5 +5 1028.1 1021.6
21 13.11 С 1 н/о н/о +2.2 +2.2 100 0 0 1027.3 1020.8
00 14.11 С 1 н/о н/о +3.0 +3.0 100 +1 +1 1026.0 1019.5
03 14.11 С 1 н/о н/о +5.3 +3.7 89 +4 +4 1025.2 1018.8 +1.3
06 14.11 штиль 0 н/о н/о +7.0 +1.4 68 +6 +6 1024.7 1018.3
09 14.11 ЮВ 1 н/о н/о +11.5 +3.7 59 +12 +12 1023.4 1017.1
12 14.11 СЗ 2 н/о н/о +10.0 +2.2 58 +9 +9 1022.1 1015.8
15 14.11 С 1 н/о н/о +7.0 +1.8 69 +6 +6 1021.3 1014.9 +12.5
18 14.11 штиль 0 н/о н/о +6.3 +5.6 95 +5 +5 1020.9 1014.5
21 14.11 штиль 0 н/о н/о +7.2 +4.0 80 +6 +6 1018.6 1012.3
00 15.11 штиль 0 н/о н/о +5.7 +5.7 100 +4 +4 1016.9 1010.5
03 15.11 СЗ 1 н/о н/о +7.4 +3.0 74 +7 +7 1016.8 1010.5 +5.5 0.3
06 15.11 штиль 0 н/о н/о +7.1 +7.1 100 +6 +6 1017.7 1011.4
09 15.11 СЗ 2 н/о н/о +9.0 +8.9 99 +7 +7 1017.4 1011.1
12 15.11 СЗ 1 н/о н/о +9.8 +7.6 86 +9 +9 1017.3 1011.0
15 15.11 С 1 н/о н/о +7.6 +7.6 100 +6 +6 1017.9 1011.6 +10.2 3
18 15.11 ЮВ 3 н/о н/о +9.9 +8.1 89 +8 +8 1018.5 1012.2
21 15.11 ЮВ 2
{12}
н/о н/о +9.8 +9.0 95 +8 +8 1019.7 1013.4
00 16.11 ЮВ 2 н/о н/о +10.7 +8.1 84 +9 +9 1020.7 1014.4
03 16.11 штиль 0 н/о н/о +6.7 +6.7 100 +6 +6 1020.6 1014.2 +6.8 11
06 16.11 С 1 н/о н/о +8.2 +8.2 100 +7 +7 1021.3 1014.9 +6.0
09 16.11 СЗ 1 н/о н/о +11.9 +5.1 63 +12 +12 1021.3 1015.0
12 16.11 С 1 н/о н/о +10.2 +5.1 71 +10 +10 1021.2 1014.9
15 16.11 СЗ 2 н/о н/о +8.1 +2.7 69 +6 +6 1020.9 1014.5 +12.5
18 16.11 С 1 н/о н/о +7.9 +2.6 69 +7 +7 1020.3 1013.9
00 17.11 СЗ 2 н/о н/о +5.8 +5.8 100 +3 +3 1022.3 1015.9

 

Местоположение метеостанции Магри (Краснодарский край, Россия): широта 44.02 долгота 39.16 высота над уровнем моря 32 м.

В архиве по умолчанию представлена погода в Магри за последнюю неделю. Архивные данные за месяц целиком и за предыдущие месяцы, начиная с января 2011 года, Вы можете получить, выбрав интересующий диапазон дат из раскрывающегося списка и нажав кнопку "Ввод!".


*Определитесь, кто Вы:
робот инопланетянин человек

Внимание! Время в таблицах - всемирное. Для получения местного времени необходимо прибавить поправку, которая в Магри равна 3 ч.

Смотрите также архив погоды в соседних городах и на ближайших метеорологических станциях:

Погода в Туапсе (Краснодарский край, Россия) (11 км)
Погода в Лазаревском (Краснодарский край, Россия) (19 км)
Погода в Горном (Краснодарский край, Россия) (30 км)
Погода в Кичмае (Краснодарский край, Россия) (35 км)
Погода в Солох Ауле (Краснодарский край, Россия) (45 км)
Погода в Джубге (Краснодарский край, Россия) (49 км)
Погода в Горячем Ключе (Краснодарский край, Россия) (68 км)
Погода в Сочи (Краснодарский край, Россия) (69 км)
Погода в Гузерипле (Адыгея, Россия) (78 км)
Погода в Кепше (Краснодарский край, Россия) (84 км)

Пояснения к столбцам:

Ветер - указаны скорость ветра в м/с - средняя за 10 мин, порывы в срок и между сроками (в фигурных скобках) и направление, откуда дует ветер: С - северный, СВ - северо-восточный, В - восточный, ЮВ - юго-восточный, Ю - южный, ЮЗ - юго-западный, З - западный, СЗ - северо-западный.
Видимость - горизонтальная дальность видимости в метрах или километрах. При видимости от 1 до 10 км при отсутствии осадков обычно наблюдается дымка, при ухудшении видимости до 1 км и менее - туман. В сухую погоду видимость может ухудшаться дымом, пылью или мглою.
Явления - указаны атмосферные явления, наблюдавшиеся в срок или в последний час перед сроком; фигурными скобками обозначены явления, наблюдавшиеся между сроками (за 1-3 часа до срока); квадратными скобками обозначены град или гололедные отложения с указанием их диаметра в мм.
Облачность - указаны через наклонную черту общая и нижняя облачность в баллах и высота нижней границы облаков в метрах; квадратными скобками обозначены формы облаков: Ci - перистые, Cs - перисто-слоистые, Cc - перисто-кучевые, Ac - высококучевые, As - высокослоистые, Sc - слоисто-кучевые, Ns - слоисто-дождевые, Cu - кучевые, Cb - кучево-дождевые. Подробнее классификацию облаков см. в Атласе облаков (PDF).
T - Температура воздуха - температура, измеренная на высоте 2 м над землей.
Td - Температура точки росы - температура, при понижении до которой содержащийся в воздухе водяной пар достигнет насыщения.
f - Относительная влажность воздуха - влажноcть воздуха, измеренная на высоте 2 м над землей.
Te - Эффективная температура - температура, которую ощущает одетый по сезону человек в тени. Характеристика душности погоды. При расчете учитывается влияние влажности воздуха и скорости ветра на теплоощущения человека.
Tes - Эффективная температура на солнце - температура, которую ощущает человек, с поправкой на солнечный нагрев. Характеристика знойности погоды. Зависит от высоты солнца над горизонтом, облачности и скорости ветра. Ночью, в пасмурную погоду, а также при ветре 12 м/с и более поправка равна нулю.
P - Атмосферное давление - приведенное к уровню моря атмосферное давление.
Po - Атмосферное давление - измеренное на уровне метеостанции атмосферное давление.
Tmin - Минимальная температура - минимум температуры воздуха на высоте 2 м над землей.
Tmax - Максимальная температура - максимум температуры воздуха на высоте 2 м над землей.
R - Количество осадков - Количество выпавших осадков за период времени, мм. При наведении курсора мыши на число - период времени, за который выпало указанное количество осадков.
R24 - Количество осадков - Количество выпавших осадков за 24 часа, мм.
S - Снежный покров - Высота снежного покрова, см. При наведении курсора мыши на число - состояние снежного покрова и степень покрытия местности в баллах.